Jamestown, NY

5:17 PM EDT on October 23, 2017 (GMT -0400)
Chautauqua County-Jamestown

Weather History for KJHW - August, 2014

Change the Weather History Date:

Wednesday, August 13, 2014

  Actual Average Record
Temperature  
Mean Temperature 56 °F -  
Max Temperature 62 °F 78 °F 96 °F (1988)
Min Temperature 50 °F 52 °F 40 °F (1986)
Degree Days  
Heating Degree Days 9    
Growing Degree Days 6 (Base 50)    
Moisture  
Dew Point 55 °F    
Average Humidity 84    
Maximum Humidity 100    
Minimum Humidity 67    
Precipitation  
Precipitation 0.07 in - - ()
Sea Level Pressure  
Sea Level Pressure 29.87 in    
Wind  
Wind Speed 8 mph (WSW)    
Max Wind Speed 17 mph    
Max Gust Speed 30 mph    
Visibility 8 miles    
Events      
Averages and records for this station are not official NWS values.
T = Trace of Precipitation, MM = Missing Value Source: NWS Daily Summary

Daily Weather History Graph

Daily Weather History Graph

Search for Another Location

Airport or City:

Trip Planner

Search our weather history database for the weather conditions in past years. The results will help you decide how hot, cold, wet, or windy it might be!

Date:

Astronomy

Aug. 13, 2014 Rise Set
Actual Time 6:22 AM EDT 8:20 PM EDT
Civil Twilight 5:52 AM EDT 8:50 PM EDT
Nautical Twilight 5:14 AM EDT 9:27 PM EDT
Astronomical Twilight 4:34 AM EDT 10:07 PM EDT
Moon 9:59 PM EDT (8/13) 9:53 AM EDT (8/13)
Length of Visible Light 14h 58m
Length of Day
13h 58m
Waning Gibbous, 88% of the Moon is Illuminated
Aug 13
Waning Gibbous
Aug 17
Last Quarter
Aug 25
New
Sep 2
First Quarter
Sep 8
Full

Hourly Weather History & Observations

Time (EDT) Temp. Dew Point Humidity Pressure Visibility Wind Dir Wind Speed Gust Speed Precip Events Conditions
12:15 AM 60.8 °F 60.8 °F 100% 29.80 in 10.0 mi South 4.6 mph - N/A   Overcast
12:55 AM 60.8 °F 59.0 °F 94% 29.79 in 4.0 mi Calm Calm - N/A   Partly Cloudy
1:15 AM 60.8 °F 57.2 °F 88% 29.80 in 0.5 mi South 4.6 mph - N/A   Overcast
1:35 AM 60.8 °F 59.0 °F 94% 29.80 in 0.8 mi South 3.5 mph - N/A   Overcast
1:55 AM 60.8 °F 59.0 °F 94% 29.80 in 7.0 mi SSW 4.6 mph - N/A   Overcast
2:15 AM 62.6 °F 60.8 °F 94% 29.80 in 7.0 mi SSW 5.8 mph - N/A   Overcast
2:35 AM 60.8 °F 60.8 °F 100% 29.80 in 3.0 mi SSW 4.6 mph - N/A   Overcast
2:55 AM 62.6 °F 60.8 °F 94% 29.80 in 5.0 mi SW 5.8 mph - N/A   Overcast
3:15 AM 62.6 °F 60.8 °F 94% 29.80 in 3.0 mi WSW 6.9 mph - 0.04 in   Overcast
3:35 AM 62.6 °F 60.8 °F 94% 29.80 in 7.0 mi West 6.9 mph - 0.07 in   Overcast
3:55 AM 60.8 °F 60.8 °F 100% 29.80 in 10.0 mi West 12.7 mph - 0.07 in   Mostly Cloudy
4:15 AM 59.0 °F 59.0 °F 100% 29.80 in 10.0 mi WNW 6.9 mph - N/A   Mostly Cloudy
4:35 AM 55.4 °F 55.4 °F 100% 29.80 in 10.0 mi WNW 10.4 mph - N/A   Overcast
4:55 AM 51.8 °F - N/A% 29.80 in 10.0 mi WNW 10.4 mph - N/A   Mostly Cloudy
5:15 AM 51.8 °F - N/A% 29.81 in 10.0 mi WNW 12.7 mph - N/A   Overcast
5:35 AM 50.0 °F - N/A% 29.80 in 10.0 mi WNW 9.2 mph - N/A   Overcast
5:55 AM 60.8 °F 55.4 °F 82% 29.81 in 10.0 mi WNW 10.4 mph - N/A   Overcast
6:15 AM 59.0 °F 55.4 °F 88% 29.82 in 10.0 mi WNW 6.9 mph - N/A   Overcast
6:35 AM 59.0 °F 55.4 °F 88% 29.82 in 10.0 mi West 6.9 mph - N/A   Overcast
6:55 AM 53.6 °F 53.6 °F 100% 29.84 in 10.0 mi West 8.1 mph - N/A   Overcast
7:15 AM 51.8 °F 51.8 °F 100% 29.84 in 10.0 mi WSW 5.8 mph - N/A   Mostly Cloudy
7:35 AM 51.8 °F 51.8 °F 100% 29.84 in 10.0 mi West 4.6 mph - N/A   Mostly Cloudy
9:35 AM 57.2 °F 55.4 °F 94% 29.86 in 10.0 mi WSW 6.9 mph - N/A   Mostly Cloudy
10:15 AM 60.8 °F 55.4 °F 82% 29.87 in 9.0 mi WSW 10.4 mph - N/A   Overcast
10:35 AM 59.0 °F 55.4 °F 88% 29.88 in 5.0 mi WSW 6.9 mph - N/A   Overcast
11:15 AM 59.0 °F 55.4 °F 88% 29.88 in 5.0 mi WSW 10.4 mph 16.1 mph N/A   Mostly Cloudy
11:35 AM 57.2 °F 55.4 °F 94% 29.88 in 3.0 mi SW 11.5 mph - N/A   Overcast
11:55 AM 57.2 °F 55.4 °F 94% 29.89 in 5.0 mi WSW 10.4 mph - N/A   Overcast
12:15 PM 59.0 °F 55.4 °F 88% 29.89 in 4.0 mi SW 15.0 mph - N/A   Overcast
12:35 PM 59.0 °F 55.4 °F 88% 29.89 in 7.0 mi WSW 12.7 mph 18.4 mph N/A   Overcast
12:55 PM 60.8 °F 55.4 °F 82% 29.89 in 10.0 mi WSW 15.0 mph - N/A   Overcast
1:15 PM 60.8 °F 55.4 °F 82% 29.89 in 10.0 mi WSW 13.8 mph 17.3 mph N/A   Overcast
1:35 PM 59.0 °F 53.6 °F 82% 29.89 in 9.0 mi SW 11.5 mph - N/A   Overcast
1:55 PM 59.0 °F 53.6 °F 82% 29.89 in 8.0 mi SW 13.8 mph 21.9 mph N/A   Overcast
2:15 PM 57.2 °F 53.6 °F 88% 29.90 in 5.0 mi WSW 12.7 mph 18.4 mph N/A   Overcast
2:35 PM 57.2 °F 51.8 °F 82% 29.90 in 9.0 mi WSW 9.2 mph - N/A   Overcast
2:55 PM 59.0 °F 51.8 °F 77% 29.90 in 10.0 mi SW 11.5 mph - N/A   Overcast
3:15 PM 59.0 °F 50.0 °F 72% 29.90 in 10.0 mi WSW 12.7 mph - N/A   Overcast
3:35 PM 59.0 °F 51.8 °F 77% 29.90 in 10.0 mi WSW 9.2 mph 18.4 mph N/A   Overcast
3:55 PM 59.0 °F 51.8 °F 77% 29.90 in 10.0 mi WSW 10.4 mph - N/A   Overcast
4:15 PM 59.0 °F 51.8 °F 77% 29.90 in 10.0 mi West 15.0 mph - N/A   Overcast
4:35 PM 62.6 °F 53.6 °F 72% 29.90 in 10.0 mi West 16.1 mph 20.7 mph N/A   Overcast
4:55 PM 62.6 °F 51.8 °F 68% 29.90 in 10.0 mi West 16.1 mph 25.3 mph N/A   Mostly Cloudy
5:15 PM 62.6 °F 51.8 °F 68% 29.91 in 10.0 mi WNW 16.1 mph 29.9 mph N/A   Scattered Clouds
5:35 PM 62.6 °F 53.6 °F 72% 29.91 in 10.0 mi West 11.5 mph - N/A   Mostly Cloudy
5:55 PM 62.6 °F 53.6 °F 72% 29.92 in 10.0 mi WSW 16.1 mph 24.2 mph N/A   Mostly Cloudy
6:15 PM 62.6 °F 53.6 °F 72% 29.91 in 10.0 mi West 13.8 mph 23.0 mph N/A   Partly Cloudy
6:35 PM 62.6 °F 53.6 °F 72% 29.91 in 10.0 mi West 15.0 mph 24.2 mph N/A   Partly Cloudy
6:55 PM 60.8 °F 51.8 °F 72% 29.92 in 10.0 mi West 10.4 mph 19.6 mph N/A   Scattered Clouds
7:15 PM 60.8 °F 53.6 °F 77% 29.92 in 10.0 mi WNW 17.3 mph 21.9 mph N/A   Mostly Cloudy
7:35 PM 60.8 °F 51.8 °F 72% 29.93 in 10.0 mi West 12.7 mph 17.3 mph N/A   Mostly Cloudy
7:55 PM 60.8 °F 51.8 °F 72% 29.93 in 10.0 mi West 10.4 mph - N/A   Scattered Clouds
8:15 PM 59.0 °F 50.0 °F 72% 29.94 in 10.0 mi WNW 10.4 mph - N/A   Scattered Clouds
8:55 PM 57.2 °F 46.4 °F 67% 29.94 in 10.0 mi WNW 16.1 mph 20.7 mph N/A   Clear
9:35 PM 57.2 °F 46.4 °F 67% 29.95 in 10.0 mi WNW 8.1 mph - N/A   Clear
9:55 PM 55.4 °F 48.2 °F 77% 29.95 in 10.0 mi WNW 10.4 mph - N/A   Clear